FW6620 Weather Reports


time (UTC)temp
C
wind
direction
speed
KPH
gust
KPH
rain 1hr
cm
rain 24hr
cm
rain mn
cm
humidity
%
barometer
mb
20260506195546 23 0 0.0 6.4 0.00 0.00 0.00 74 1012.1
20260506195045 24 43 0.0 6.4 0.00 0.00 0.00 73 1011.9
20260506194556 24 103 1.6 4.8 0.00 0.00 0.00 72 1011.8
20260506194045 25 103 0.0 3.2 0.00 0.00 0.00 75 1011.6
20260506193550 25 0 0.0 3.2 0.00 0.00 0.00 74 1011.5
20260506193054 25 0 0.0 3.2 0.00 0.00 0.00 75 1011.6
20260506192544 25 103 0.0 3.2 0.00 0.00 0.00 75 1011.5
20260506192045 25 0 0.0 3.2 0.00 0.00 0.00 75 1011.5
20260506191552 25 0 0.0 3.2 0.00 0.00 0.00 76 1011.6
20260506191045 25 0 0.0 3.2 0.00 0.00 0.00 76 1011.7
20260506190545 25 0 0.0 3.2 0.00 0.00 0.00 77 1011.8
20260506190058 25 0 0.0 3.2 0.00 0.00 0.00 76 1011.9
20260506185545 25 0 0.0 4.8 0.00 0.00 0.00 77 1011.9
20260506185045 25 0 0.0 4.8 0.00 0.00 0.00 77 1011.9
20260506184554 25 103 0.0 4.8 0.00 0.00 0.00 80 1011.8
20260506184045 24 0 1.6 4.8 0.00 0.00 0.00 81 1011.8
20260506183549 24 0 0.0 3.2 0.00 0.00 0.00 78 1011.8
20260506183054 23 0 0.0 3.2 0.00 0.00 0.00 81 1011.8
20260506182545 23 103 0.0 3.2 0.00 0.00 0.00 82 1012.0
20260506182045 23 0 0.0 4.8 0.00 0.00 0.00 80 1012.0
20260506181559 23 0 0.0 4.8 0.00 0.00 0.00 81 1012.0
20260506181045 23 103 0.0 4.8 0.00 0.00 0.00 82 1011.9
20260506180545 22 0 0.0 4.8 0.00 0.00 0.00 83 1011.9
20260506180051 22 0 0.0 4.8 0.00 0.00 0.00 83 1011.9
20260506175545 22 0 0.0 4.8 0.00 0.00 0.00 82 1011.8
20260506175045 22 103 1.6 4.8 0.00 0.00 0.00 85 1011.8
20260506174557 22 0 1.6 4.8 0.00 0.00 0.00 85 1011.9
20260506174045 21 0 0.0 4.8 0.00 0.00 0.00 89 1011.9
20260506173545 21 103 0.0 4.8 0.00 0.00 0.00 87 1012.0
20260506173124 21 103 1.6 4.8 0.00 0.00 0.00 89 1012.2
20260506172546 20 0 1.6 4.8 0.00 0.00 0.00 90 1012.2
20260506172047 20 0 0.0 3.2 0.00 0.00 0.00 92 1012.1
20260506171547 20 103 0.0 4.8 0.00 0.00 0.00 91 1012.2
20260506171045 19 0 0.0 4.8 0.00 0.00 0.00 90 1012.1
20260506170544 19 103 0.0 3.2 0.00 0.00 0.00 92 1012.3
20260506170052 19 0 0.0 3.2 0.00 0.00 0.00 92 1012.2
20260506165544 19 103 0.0 3.2 0.00 0.00 0.00 93 1012.5
20260506165045 18 0 0.0 3.2 0.00 0.00 0.00 93 1012.6
20260506164556 18 0 0.0 3.2 0.00 0.00 0.00 92 1012.7
20260506164045 18 0 0.0 3.2 0.00 0.00 0.00 90 1012.7
20260506163545 18 0 0.0 6.4 0.00 0.00 0.00 88 1012.8
20260506163106 18 0 0.0 4.8 0.00 0.00 0.00 87 1013.1
20260506162545 19 0 1.6 9.7 0.00 0.00 0.00 87 1013.4
20260506162047 19 0 0.0 9.7 0.00 0.00 0.00 86 1013.5
20260506161622 20 0 1.6 6.4 0.00 0.00 0.00 86 1013.5
20260506161044 20 96 1.6 4.8 0.00 0.00 0.00 86 1013.5
20260506160545 20 0 1.6 4.8 0.00 0.00 0.00 86 1013.1
20260506160051 21 0 0.0 8.0 0.00 0.00 0.00 85 1013.0
20260506155544 21 141 1.6 6.4 0.00 0.00 0.00 83 1013.1
20260506155044 22 119 1.6 6.4 0.00 0.00 0.00 82 1013.0
20260506154600 23 183 0.0 6.4 0.00 0.00 0.00 82 1012.9
20260506154045 23 0 1.6 6.4 0.00 0.00 0.00 80 1012.5
20260506153546 25 149 1.6 6.4 0.00 0.00 0.00 86 1012.5
20260506153059 25 0 0.0 0.0 0.00 0.00 0.00 89 1012.0
20260506152545 25 0 0.0 0.0 0.00 0.00 0.00 89 1011.9
20260506152045 25 0 0.0 0.0 0.00 0.00 0.00 89 1011.6
20260506151555 25 0 0.0 0.0 0.00 0.00 0.00 89 1011.4
20260506151045 25 0 0.0 0.0 0.00 0.00 0.00 89 1011.6
20260506150548 25 0 0.0 0.0 0.00 0.00 0.00 89 1011.5
20260506150052 25 0 0.0 0.0 0.00 0.00 0.00 89 1011.5
20260506145545 25 0 0.0 0.0 0.00 0.00 0.00 89 1011.1
20260506145044 25 0 0.0 4.8 0.00 0.00 0.00 89 1011.0
20260506144552 25 0 0.0 4.8 0.00 0.00 0.00 89 1010.7
20260506144044 25 0 0.0 0.0 0.00 0.00 0.00 89 1010.8
20260506143545 25 0 0.0 4.8 0.00 0.00 0.00 89 1010.8
20260506143101 25 0 0.0 4.8 0.00 0.00 0.00 89 1010.6
20260506142545 25 24 0.0 4.8 0.00 0.00 0.00 90 1010.6
20260506142045 25 0 0.0 4.8 0.00 0.00 0.00 91 1010.3
20260506141548 24 0 0.0 1.6 0.00 0.00 0.00 91 1010.3
20260506141048 24 0 0.0 1.6 0.00 0.00 0.00 91 1010.5
20260506140548 24 0 0.0 1.6 0.00 0.00 0.00 91 1010.8
20260506140049 24 0 0.0 0.0 0.00 0.00 0.00 91 1010.7
20260506135546 24 0 0.0 0.0 0.00 0.00 0.00 91 1010.6
20260506135048 24 0 0.0 1.6 0.00 0.00 0.00 92 1010.4
20260506134552 24 0 0.0 3.2 0.00 0.00 0.00 91 1010.1
20260506134048 24 0 0.0 3.2 0.00 0.00 0.00 91 1010.1
20260506133548 24 0 0.0 0.0 0.00 0.00 0.00 91 1010.1
20260506133046 24 0 0.0 3.2 0.00 0.00 0.00 91 1010.0
20260506132547 23 0 0.0 3.2 0.00 0.00 0.00 91 1010.0
20260506132047 23 24 0.0 3.2 0.00 0.00 0.00 92 1010.0
20260506131551 23 0 0.0 1.6 0.00 0.00 0.00 92 1010.0
20260506131047 23 0 0.0 3.2 0.00 0.00 0.00 92 1010.0
20260506130547 23 0 0.0 3.2 0.00 0.00 0.00 92 1009.9
20260506125548 23 0 0.0 1.6 0.00 0.00 0.00 92 1009.7
20260506125047 23 0 0.0 1.6 0.00 0.00 0.00 92 1009.7
20260506124557 23 0 0.0 1.6 0.00 0.00 0.00 92 1009.7
20260506124048 23 0 0.0 0.0 0.00 0.00 0.00 92 1009.7
20260506123548 23 0 0.0 0.0 0.00 0.00 0.00 92 1009.7
20260506123051 23 0 0.0 1.6 0.00 0.00 0.00 92 1009.7
20260506122550 23 0 0.0 1.6 0.00 0.00 0.00 92 1009.8
20260506122047 23 0 0.0 1.6 0.00 0.00 0.00 92 1009.7
20260506121547 23 0 0.0 0.0 0.00 0.00 0.00 92 1009.8
20260506121047 23 0 0.0 0.0 0.00 0.00 0.00 92 1009.8
20260506120550 23 0 0.0 0.0 0.00 0.00 0.00 92 1009.7
20260506120049 23 0 0.0 0.0 0.00 0.00 0.00 92 1009.6
20260506115547 23 0 0.0 0.0 0.00 0.00 0.00 92 1009.5
20260506115046 23 0 0.0 3.2 0.00 0.00 0.00 92 1009.5
20260506114547 23 0 0.0 3.2 0.00 0.00 0.00 92 1009.5
20260506114047 23 0 0.0 0.0 0.00 0.00 0.00 92 1009.6
20260506113547 23 0 0.0 0.0 0.00 0.00 0.00 92 1009.5
20260506113055 23 0 0.0 0.0 0.00 0.00 0.00 92 1009.7
20260506112549 23 0 0.0 0.0 0.00 0.00 0.00 91 1009.6
20260506112047 23 0 0.0 0.0 0.00 0.00 0.00 91 1009.5
20260506111552 23 0 0.0 0.0 0.00 0.00 0.00 91 1009.6
20260506111048 23 0 0.0 0.0 0.00 0.00 0.00 91 1009.7
20260506110548 23 0 0.0 1.6 0.00 0.00 0.00 91 1009.5
20260506110100 23 0 0.0 1.6 0.00 0.00 0.00 91 1009.6
20260506105548 23 0 0.0 1.6 0.00 0.00 0.00 91 1009.5
20260506105048 23 0 0.0 1.6 0.00 0.00 0.00 91 1009.4
20260506104557 23 0 0.0 0.0 0.00 0.00 0.00 91 1009.4
20260506104048 24 0 0.0 0.0 0.00 0.00 0.00 91 1009.5
20260506103548 24 0 0.0 0.0 0.00 0.00 0.00 91 1009.4
20260506103059 24 0 0.0 1.6 0.00 0.00 0.00 90 1009.3
20260506102547 24 0 0.0 3.2 0.00 0.00 0.00 90 1009.3
20260506102047 24 0 0.0 3.2 0.00 0.00 0.00 90 1009.2
20260506101608 23 0 0.0 3.2 0.00 0.00 0.00 90 1009.0
20260506101047 24 0 0.0 6.4 0.00 0.00 0.00 91 1009.0
20260506100547 24 0 0.0 6.4 0.00 0.00 0.00 91 1009.0
20260506100114 24 0 0.0 3.2 0.00 0.00 0.00 91 1008.9
20260506095548 24 0 0.0 1.6 0.00 0.00 0.00 91 1008.8
20260506095049 24 0 0.0 3.2 0.00 0.00 0.00 91 1008.8
20260506094551 24 0 0.0 3.2 0.00 0.00 0.00 91 1008.8
20260506094049 24 0 0.0 4.8 0.00 0.00 0.00 91 1008.6
20260506093547 24 24 0.0 4.8 0.00 0.00 0.00 91 1008.6
20260506093051 24 0 1.6 4.8 0.00 0.00 0.00 91 1008.5
20260506092547 24 22 0.0 3.2 0.00 0.00 0.00 91 1008.5
20260506092048 24 0 0.0 8.0 0.00 0.00 0.00 91 1008.5
20260506091555 24 0 0.0 8.0 0.00 0.00 0.00 91 1008.5
20260506091048 24 0 0.0 6.4 0.00 0.00 0.00 91 1008.3
20260506090547 24 0 0.0 9.7 0.00 0.00 0.00 90 1008.1
20260506090056 24 0 1.6 9.7 0.00 0.00 0.00 90 1008.2
20260506085547 24 37 0.0 12.9 0.00 0.00 0.00 90 1008.2
20260506085049 24 0 1.6 8.0 0.00 0.00 0.00 90 1008.2
20260506084619 24 31 0.0 6.4 0.00 0.00 0.00 90 1008.3
20260506084047 24 24 0.0 6.4 0.00 0.00 0.00 90 1008.4
20260506083547 24 0 0.0 4.8 0.00 0.00 0.00 90 1008.4
20260506083051 24 25 0.0 11.3 0.00 0.00 0.00 90 1008.3
20260506082546 24 25 1.6 11.3 0.00 0.00 0.00 90 1008.4
20260506082048 24 25 1.6 9.7 0.00 0.00 0.00 90 1008.2
20260506081555 24 26 3.2 9.7 0.00 0.00 0.00 90 1008.3
20260506081047 24 0 0.0 9.7 0.00 0.00 0.00 90 1008.4
20260506080548 24 23 1.6 9.7 0.00 0.00 0.00 90 1008.4
20260506073056 24 29 3.2 9.7 0.00 0.00 0.00 90 1008.7
20260506072547 24 19 1.6 9.7 0.00 0.00 0.00 90 1008.8
20260506072047 24 0 0.0 8.0 0.00 0.00 0.00 90 1008.8
20260506071552 24 47 1.6 8.0 0.00 0.00 0.00 89 1008.8
20260506071048 24 23 1.6 9.7 0.00 0.00 0.00 89 1008.8
20260506070548 24 26 1.6 9.7 0.00 0.00 0.00 89 1008.8
20260506070103 24 23 1.6 9.7 0.00 0.00 0.00 89 1008.9
20260506062047 24 22 3.2 9.7 0.00 0.00 0.00 89 1008.9
20260506061604 24 33 0.0 9.7 0.00 0.00 0.00 89 1008.9
20260506061047 24 0 3.2 9.7 0.00 0.00 0.00 89 1008.8
20260506060547 24 26 1.6 8.0 0.00 0.00 0.00 89 1008.8
20260506060104 24 29 1.6 8.0 0.00 0.00 0.00 90 1008.9
20260506051047 25 38 0.0 8.0 0.00 0.00 0.00 89 1008.9
20260506050547 25 0 1.6 9.7 0.00 0.00 0.00 88 1008.8
20260506045050 25 0 0.0 9.7 0.00 0.00 0.00 88 1008.9
20260506044702 25 0 1.6 9.7 0.00 0.00 0.00 88 1008.9
20260506044049 25 24 1.6 9.7 0.00 0.00 0.00 88 1008.9
20260506043548 25 0 0.0 8.0 0.00 0.00 0.00 88 1008.9
20260506043050 25 20 0.0 8.0 0.00 0.00 0.00 87 1008.9
20260506042548 25 0 1.6 6.4 0.00 0.00 0.00 87 1008.8
20260506042047 25 24 1.6 8.0 0.00 0.00 0.00 87 1008.7
20260506041600 25 0 1.6 8.0 0.00 0.00 0.00 87 1008.7
20260506041047 25 17 0.0 9.7 0.00 0.00 0.00 87 1008.7
20260506040550 25 0 1.6 9.7 0.00 0.00 0.00 87 1008.7
20260506040050 25 20 1.6 6.4 0.00 0.00 0.00 87 1008.7
20260506035547 25 0 0.0 6.4 0.00 0.00 0.00 86 1008.5
20260506035047 25 0 1.6 9.7 0.00 0.00 0.00 86 1008.4
20260506034623 25 22 1.6 9.7 0.00 0.00 0.00 86 1008.4
20260506034046 25 0 1.6 9.7 0.00 0.00 0.00 86 1008.4
20260506033546 25 0 0.0 6.4 0.00 0.00 0.00 86 1008.5
20260506033101 25 0 0.0 4.8 0.00 0.00 0.00 86 1008.3
20260506032547 25 23 0.0 6.4 0.00 0.00 0.00 86 1008.3
20260506032047 25 0 0.0 8.0 0.00 0.00 0.00 85 1008.1
20260506031553 25 0 1.6 8.0 0.00 0.00 0.00 85 1008.0
20260506031047 25 27 1.6 8.0 0.00 0.00 0.00 85 1008.0
20260506030546 26 21 1.6 8.0 0.00 0.00 0.00 85 1008.0
20260506030053 26 0 1.6 8.0 0.00 0.00 0.00 85 1007.9
20260506025547 26 0 0.0 8.0 0.00 0.00 0.00 84 1008.1
20260506025052 26 24 0.0 4.8 0.00 0.00 0.00 84 1007.9
20260506024549 26 0 0.0 11.3 0.00 0.00 0.00 84 1007.8
20260506024047 26 0 1.6 11.3 0.00 0.00 0.00 83 1007.6
20260506023547 26 0 0.0 9.7 0.00 0.00 0.00 83 1007.5
20260506023108 26 24 0.0 9.7 0.00 0.00 0.00 83 1007.4
20260506022547 26 0 0.0 4.8 0.00 0.00 0.00 82 1007.2
20260506022046 26 24 0.0 3.2 0.00 0.00 0.00 82 1007.2
20260506021548 26 0 0.0 4.8 0.00 0.00 0.00 81 1007.0
20260506021047 26 0 0.0 4.8 0.00 0.00 0.00 81 1006.8
20260506020547 26 0 0.0 4.8 0.00 0.00 0.00 81 1006.8
20260506020051 26 0 0.0 4.8 0.00 0.00 0.00 81 1006.7
20260506015547 26 0 0.0 4.8 0.00 0.00 0.00 81 1006.8
20260506015047 26 24 0.0 4.8 0.00 0.00 0.00 81 1006.8
20260506014548 26 0 0.0 4.8 0.00 0.00 0.00 81 1006.8
20260506014046 26 0 0.0 4.8 0.00 0.00 0.00 81 1006.7
20260506013547 26 0 0.0 3.2 0.00 0.00 0.00 81 1006.7
20260506013050 26 0 0.0 1.6 0.00 0.00 0.00 80 1006.7
20260506012547 27 0 0.0 1.6 0.00 0.00 0.00 80 1006.6
20260506012048 27 0 0.0 0.0 0.00 0.00 0.00 80 1006.6
20260506011608 27 0 0.0 3.2 0.00 0.00 0.00 80 1006.7
20260506011047 27 0 0.0 3.2 0.00 0.00 0.00 80 1006.7
20260506010548 27 0 0.0 1.6 0.00 0.00 0.00 79 1006.7
20260506010100 27 0 0.0 1.6 0.00 0.00 0.00 80 1006.6
20260506005546 27 0 0.0 1.6 0.00 0.00 0.00 79 1006.7
20260506005047 27 0 0.0 0.0 0.00 0.00 0.00 79 1006.7
20260506004616 27 0 0.0 3.2 0.00 0.00 0.00 78 1006.7
20260506004048 27 0 0.0 3.2 0.00 0.00 0.00 78 1006.7
20260506003548 27 0 0.0 4.8 0.00 0.00 0.00 78 1006.6
20260506003104 27 0 0.0 3.2 0.00 0.00 0.00 78 1006.6
20260506002547 27 0 0.0 3.2 0.00 0.00 0.00 78 1006.6
20260506002048 27 0 0.0 3.2 0.00 0.00 0.00 78 1006.6
20260506001557 27 0 0.0 1.6 0.00 0.00 0.00 77 1006.6
20260506001047 28 0 0.0 4.8 0.00 0.00 0.00 77 1006.5
20260506000548 28 0 0.0 4.8 0.00 0.00 0.00 77 1006.4
20260506000053 28 24 0.0 1.6 0.00 0.00 0.00 77 1006.4
20260505235546 28 0 0.0 9.7 0.00 0.03 0.00 76 1006.5
20260505235048 28 24 1.6 9.7 0.00 0.03 0.00 75 1006.4
20260505234617 28 18 0.0 6.4 0.00 0.03 0.00 75 1006.4
20260505234048 28 0 0.0 6.4 0.00 0.03 0.00 76 1006.3
20260505233546 28 19 1.6 8.0 0.00 0.03 0.00 75 1006.1
20260505233049 28 0 1.6 8.0 0.00 0.03 0.00 75 1006.2
20260505232547 28 13 0.0 8.0 0.00 0.03 0.00 74 1006.2
20260505232047 28 17 1.6 8.0 0.00 0.03 0.00 75 1006.2
20260505231556 28 26 0.0 6.4 0.00 0.03 0.00 75 1006.3
20260505231048 28 26 0.0 6.4 0.00 0.03 0.00 74 1006.3
20260505230547 28 0 0.0 6.4 0.00 0.03 0.00 74 1006.2
20260505230054 28 26 0.0 8.0 0.00 0.03 0.00 74 1006.1
20260505225547 28 0 0.0 8.0 0.00 0.03 0.00 74 1006.0
20260505225047 28 19 0.0 6.4 0.00 0.03 0.00 74 1006.0
20260505224553 28 18 1.6 6.4 0.00 0.03 0.00 74 1006.1
20260505224045 28 26 1.6 6.4 0.00 0.03 0.00 74 1006.1
20260505223545 28 0 0.0 6.4 0.00 0.03 0.00 75 1005.9
20260505223051 28 24 1.6 6.4 0.00 0.03 0.00 75 1006.0
20260505222547 28 16 0.0 4.8 0.00 0.03 0.00 75 1006.0
20260505222047 28 0 0.0 4.8 0.00 0.03 0.00 75 1006.0
20260505221555 28 16 0.0 8.0 0.00 0.03 0.00 74 1006.0
20260505221046 28 16 1.6 9.7 0.00 0.03 0.00 74 1006.0
20260505220546 28 0 1.6 9.7 0.00 0.03 0.00 73 1006.1
20260505220105 28 12 1.6 11.3 0.00 0.03 0.00 73 1006.2
20260505215547 28 26 3.2 11.3 0.00 0.03 0.00 73 1006.2
20260505215047 28 16 3.2 11.3 0.00 0.03 0.00 72 1006.5
20260505214602 28 0 1.6 9.7 0.00 0.03 0.00 72 1006.6
20260505214046 28 25 1.6 11.3 0.00 0.03 0.00 72 1006.6
20260505213546 28 0 1.6 12.9 0.00 0.03 0.00 72 1006.6
20260505213101 28 37 0.0 12.9 0.00 0.03 0.00 73 1006.8
20260505212547 28 39 3.2 12.9 0.00 0.03 0.00 72 1006.8
20260505212045 28 26 1.6 11.3 0.00 0.03 0.00 72 1006.7
20260505211601 28 12 1.6 9.7 0.00 0.03 0.00 73 1006.7
20260505211047 28 37 1.6 9.7 0.00 0.03 0.00 73 1006.7
20260505210546 28 29 1.6 6.4 0.00 0.03 0.00 75 1006.8
20260505210053 28 0 1.6 6.4 0.00 0.03 0.00 75 1006.8
20260505205549 28 0 1.6 6.4 0.00 0.03 0.00 74 1006.9
20260505205047 28 0 1.6 9.7 0.00 0.03 0.00 75 1006.9
20260505204555 28 0 1.6 12.9 0.00 0.03 0.00 74 1006.9
20260505204047 28 28 1.6 12.9 0.00 0.03 0.00 76 1007.3
20260505203547 27 47 3.2 11.3 0.00 0.03 0.00 76 1007.5
20260505203054 27 33 0.0 8.0 0.00 0.03 0.00 76 1007.5
20260505202547 27 20 3.2 11.3 0.00 0.03 0.00 76 1007.6
20260505202046 27 23 1.6 12.9 0.00 0.03 0.00 76 1007.6
20260505201557 27 0 1.6 12.9 0.00 0.03 0.00 76 1007.7
20260505201047 27 27 1.6 9.7 0.00 0.03 0.00 77 1007.8
20260505200546 27 9 3.2 9.7 0.00 0.03 0.00 76 1007.8